D3121 Weather Reports


time (UTC)temp
C
wind
direction
speed
KPH
gust
KPH
rain 1hr
cm
rain 24hr
cm
rain mn
cm
humidity
%
barometer
mb
20260507120117 8 113 1.6 6.4 0.00 1.12 0.03 89 1007.0
20260507115117 7 0.0 0.0 0.00 1.12 0.03 90 1007.0
20260507114117 7 315 1.6 1.6 0.00 1.12 0.03 91 1007.0
20260507113117 7 0.0 0.0 0.00 1.12 0.03 92 1007.2
20260507112117 7 0.0 1.6 0.00 1.12 0.03 94 1007.0
20260507111117 6 135 6.4 8.0 0.00 1.12 0.03 95 1007.0
20260507110117 6 0.0 0.0 0.00 1.12 0.03 95 1006.9
20260507105137 6 0 3.2 3.2 0.00 1.12 0.03 95 1006.8
20260507104117 6 0 3.2 4.8 0.00 1.12 0.03 96 1006.8
20260507103117 6 0.0 0.0 0.00 1.12 0.03 96 1006.8
20260507102137 5 0.0 0.0 0.00 1.12 0.03 96 1006.7
20260507101117 5 0.0 0.0 0.00 1.12 0.03 96 1006.6
20260507100157 5 0.0 0.0 0.00 1.12 0.03 96 1006.8
20260507095117 5 0.0 0.0 0.00 1.12 0.03 96 1006.7
20260507094117 5 0.0 0.0 0.00 1.12 0.03 96 1006.9
20260507093137 5 0.0 1.6 0.00 1.12 0.03 96 1006.8
20260507092116 5 0.0 1.6 0.00 1.12 0.03 96 1006.9
20260507091117 5 0.0 0.0 0.00 1.12 0.03 96 1007.1
20260507090117 5 0.0 0.0 0.00 1.12 0.03 95 1007.0
20260507085116 5 0.0 0.0 0.00 1.12 0.03 95 1006.6
20260507084117 5 0.0 0.0 0.00 1.12 0.03 96 1006.7
20260507083116 5 0.0 0.0 0.00 1.12 0.03 95 1006.7
20260507082117 5 0.0 0.0 0.00 1.12 0.03 95 1006.5
20260507081117 5 0.0 0.0 0.00 1.12 0.03 95 1006.6
20260507080117 5 0.0 0.0 0.00 1.12 0.03 95 1006.4
20260507075117 5 0.0 1.6 0.00 1.12 0.03 95 1006.5
20260507074137 6 0.0 0.0 0.00 1.12 0.03 95 1006.4
20260507073117 6 0.0 1.6 0.00 1.12 0.03 95 1006.4
20260507072117 6 0.0 0.0 0.00 1.12 0.03 95 1006.3
20260507071137 6 270 1.6 3.2 0.00 1.12 0.03 95 1005.9
20260507070116 6 0.0 0.0 0.00 1.12 0.03 95 1005.9
20260507065117 6 0.0 0.0 0.00 1.12 0.03 95 1005.6
20260507064117 6 293 1.6 3.2 0.00 1.12 0.03 95 1005.7
20260507063117 6 0.0 0.0 0.00 1.12 0.03 95 1006.2
20260507062117 6 0.0 0.0 0.00 1.12 0.03 95 1006.1
20260507061117 6 0.0 0.0 0.00 1.12 0.03 95 1006.3
20260507060137 6 0.0 0.0 0.00 1.12 0.03 95 1006.3
20260507055117 6 0.0 0.0 0.00 1.12 0.03 95 1006.0
20260507054117 6 338 1.6 3.2 0.00 1.12 0.03 96 1006.6
20260507053117 6 0.0 0.0 0.00 1.12 0.03 95 1006.8
20260507052117 6 0.0 0.0 0.00 1.12 0.03 95 1006.2
20260507051137 7 0.0 3.2 0.03 1.12 0.03 95 1006.6
20260507050117 7 0.0 0.0 0.03 1.12 0.03 95 1006.4
20260507045116 7 0.0 0.0 0.03 1.12 0.03 95 1006.3
20260507044117 7 293 1.6 1.6 0.03 1.12 0.03 95 1006.2
20260507043117 7 0.0 0.0 0.03 1.12 0.03 95 1006.2
20260507042117 7 0.0 1.6 0.03 1.12 0.03 95 1006.4
20260507041117 7 0.0 1.6 0.00 1.09 0.00 95 1006.3
20260507040117 7 0.0 0.0 0.00 1.09 0.00 95 1006.2
20260507035116 7 0.0 0.0 0.03 1.09 1.09 94 1006.2
20260507034115 7 0.0 1.6 0.03 1.09 1.09 94 1006.3
20260507033116 7 293 1.6 1.6 0.03 1.09 1.09 94 1006.3
20260507032116 7 270 1.6 3.2 0.03 1.09 1.09 94 1006.2
20260507031116 7 225 1.6 3.2 0.05 1.09 1.09 94 1006.2
20260507030115 8 315 1.6 3.2 0.05 1.09 1.09 94 1006.3
20260507025136 8 315 1.6 1.6 0.03 1.07 1.07 95 1006.4
20260507024116 8 0.0 3.2 0.05 1.07 1.07 94 1006.2
20260507023116 8 315 1.6 3.2 0.05 1.07 1.07 94 1006.2
20260507022136 8 338 1.6 4.8 0.08 1.07 1.07 94 1006.4
20260507021115 8 0.0 1.6 0.08 1.04 1.04 94 1006.4
20260507020116 9 270 1.6 3.2 0.10 1.04 1.04 95 1006.2
20260507015115 9 0.0 0.0 0.10 1.04 1.04 95 1006.3
20260507014115 9 293 1.6 3.2 0.08 1.02 1.02 94 1006.0
20260507013115 9 0.0 0.0 0.10 1.02 1.02 94 1005.9
20260507012115 10 270 3.2 4.8 0.10 0.99 0.99 94 1005.8
20260507011118 10 338 1.6 3.2 0.08 0.97 0.97 94 1005.7
20260507010116 10 338 4.8 11.3 0.05 0.94 0.94 94 1005.4
20260507005118 11 338 8.0 9.7 0.05 0.94 0.94 95 1005.1
20260507004115 11 225 1.6 6.4 0.08 0.94 0.94 95 1005.2
20260507003117 11 293 1.6 6.4 0.08 0.91 0.91 95 1004.8
20260507002116 11 270 1.6 4.8 0.23 0.89 0.89 95 1004.5
20260507001117 11 338 4.8 9.7 0.25 0.89 0.89 94 1004.3
20260507000159 11 315 4.8 8.0 0.25 0.89 0.89 94 1004.0
20260506235117 12 338 11.3 19.3 0.25 0.89 0.89 93 1003.9
20260506234117 13 338 8.0 14.5 0.25 0.86 0.86 94 1003.8
20260506233117 14 293 4.8 11.3 0.25 0.84 0.84 96 1003.6
20260506232138 14 0.0 1.6 0.08 0.66 0.66 96 1003.3
20260506231117 14 0.0 0.0 0.05 0.66 0.64 95 1003.2
20260506230118 14 0.0 1.6 0.08 0.66 0.64 95 1003.2
20260506225117 14 0.0 0.0 0.08 0.66 0.64 95 1003.5
20260506224118 14 0.0 1.6 0.05 0.64 0.61 95 1003.4
20260506223116 14 293 1.6 1.6 0.03 0.61 0.58 95 1003.4
20260506222138 14 0.0 1.6 0.03 0.61 0.58 94 1003.2
20260506221156 14 0.0 1.6 0.03 0.61 0.58 94 1003.3
20260506220158 14 0.0 3.2 0.00 0.58 0.56 94 1003.2
20260506215116 15 180 1.6 3.2 0.00 0.58 0.56 94 1003.2
20260506214138 15 248 4.8 6.4 0.03 0.61 0.56 95 1003.2
20260506213117 14 315 1.6 3.2 0.03 0.61 0.56 95 1003.2
20260506212136 14 0.0 3.2 0.03 0.61 0.56 95 1003.3
20260506211117 14 0.0 0.0 0.05 0.61 0.56 95 1003.4
20260506210117 14 315 1.6 4.8 0.05 0.61 0.56 95 1003.5
20260506205117 14 0.0 1.6 0.05 0.61 0.56 96 1003.6
20260506204118 14 0 1.6 4.8 0.03 0.58 0.53 96 1003.5
20260506203118 14 225 1.6 3.2 0.03 0.58 0.53 96 1003.6
20260506202117 13 0.0 1.6 0.03 0.58 0.53 96 1003.5
20260506201118 13 0.0 0.0 0.00 0.56 0.51 96 1003.6
20260506200118 13 0.0 0.0 0.08 0.56 0.51 95 1003.7
20260506195117 13 0.0 0.0 0.13 0.56 0.51 94 1003.7
20260506194117 13 0.0 0.0 0.15 0.56 0.51 94 1003.9
20260506193117 13 0.0 1.6 0.18 0.56 0.51 93 1004.1
20260506192117 14 0.0 0.0 0.18 0.56 0.51 95 1004.2
20260506191117 14 90 1.6 3.2 0.20 0.56 0.51 95 1004.3
20260506190118 13 0.0 0.0 0.13 0.48 0.43 94 1004.4
20260506185117 14 0.0 0.0 0.10 0.43 0.38 94 1004.6
20260506184117 14 0.0 0.0 0.13 0.41 0.36 94 1004.7
20260506183117 14 0.0 0.0 0.15 0.38 0.33 94 1004.8
20260506182116 14 0.0 0.0 0.18 0.38 0.33 94 1004.8
20260506181117 14 0.0 0.0 0.20 0.36 0.30 94 1005.2
20260506180117 15 0.0 0.0 0.23 0.36 0.30 94 1005.5
20260506175117 15 0.0 0.0 0.23 0.33 0.28 94 1005.7
20260506174117 15 23 1.6 4.8 0.20 0.28 0.23 93 1005.8
20260506173117 15 0.0 1.6 0.18 0.23 0.18 93 1005.8
20260506172117 15 0.0 1.6 0.15 0.20 0.15 93 1005.8
20260506171116 15 0.0 1.6 0.10 0.15 0.10 92 1005.8
20260506170118 15 0.0 1.6 0.08 0.13 0.08 92 1005.9
20260506165138 15 0.0 1.6 0.05 0.10 0.05 90 1005.9
20260506164117 15 293 1.6 3.2 0.03 0.08 0.03 90 1006.0
20260506163117 15 0.0 1.6 0.00 0.05 0.00 87 1006.0
20260506162117 15 0.0 1.6 0.00 0.05 0.00 86 1006.0
20260506161117 16 0.0 0.0 0.00 0.05 0.00 85 1006.2
20260506160117 16 0.0 1.6 0.00 0.05 0.00 84 1006.3
20260506155117 16 338 1.6 3.2 0.00 0.05 0.00 84 1006.5
20260506154117 16 90 1.6 3.2 0.00 0.05 0.00 84 1006.8
20260506153117 16 0.0 0.0 0.00 0.05 0.00 83 1007.0
20260506152117 16 45 1.6 3.2 0.00 0.05 0.00 82 1007.2
20260506151118 16 248 1.6 3.2 0.00 0.05 0.00 83 1007.2
20260506150117 16 158 3.2 6.4 0.00 0.05 0.00 82 1007.2
20260506145118 15 0.0 1.6 0.00 0.05 0.00 83 1006.9
20260506144117 15 113 1.6 3.2 0.00 0.05 0.00 83 1006.7
20260506143117 15 45 4.8 6.4 0.00 0.05 0.00 83 1006.7
20260506142117 15 0 1.6 3.2 0.00 0.05 0.00 83 1006.9
20260506141117 15 45 3.2 4.8 0.00 0.05 0.00 83 1006.9
20260506140117 15 90 1.6 3.2 0.00 0.05 0.00 84 1007.1
20260506135117 15 90 3.2 8.0 0.00 0.05 0.00 84 1006.9
20260506134117 15 68 1.6 1.6 0.00 0.05 0.00 84 1006.9
20260506133117 15 0.0 0.0 0.00 0.05 0.00 85 1007.0
20260506132117 15 23 3.2 4.8 0.00 0.05 0.00 85 1007.2
20260506131117 15 180 1.6 3.2 0.00 0.05 0.00 86 1007.4
20260506130117 14 158 3.2 6.4 0.00 0.05 0.00 87 1007.7
20260506125117 14 135 1.6 3.2 0.00 0.05 0.00 87 1007.6
20260506124117 13 0.0 0.0 0.00 0.05 0.00 88 1007.1
20260506123117 13 0.0 0.0 0.00 0.05 0.00 89 1007.2
20260506122117 13 0.0 0.0 0.00 0.05 0.00 89 1006.9
20260506121137 13 0.0 0.0 0.00 0.05 0.00 89 1007.0